www.pogodaiklimat.ru

Погода и климат >> Архив погоды >> Словакия >> Малый Яровник


ПОГОДА в Малом Яровнику

  • Прогноз погоды в Малом Яровнику
  • Монитор погоды в Малом Яровнику

АРХИВ ПОГОДЫ в Малом Яровнику

Время (UTC), дата Ветер
(напр.,м/с)
 
Видим.   Явления Облачность Т
(С)
Тd
(С)
f
(%)
Тe
(С)
Тes
(С)
Комфортность P
(гПа)
Po
(гПа)
Тmin
(С)
Tmax
(С)
R
(мм)
R24
(мм)
S
(см)
13 10.09 ЮВ 7 20 км н/о +16.5 +14.6 89 +15 +15 952.0
14 10.09 ЮВ 8 20 км н/о +16.7 +14.5 87 +15 +15 951.8
15 10.09 ЮВ 6 20 км н/о +16.6 +14.6 88 +15 +15 951.9
16 10.09 ЮВ 5 20 км н/о +16.5 +14.1 86 +16 +16 951.9
17 10.09 ЮВ 5 20 км н/о +15.2 +14.2 94 +14 +14 952.3
18 10.09 ЮВ 6 20 км н/о +15.0 +13.9 93 +13 +13 952.6 +16.9
19 10.09 В 6 20 км н/о +14.7 +14.0 96 +13 +13 952.9
20 10.09 В 5 20 км н/о +14.0 +14.0 100 +12 +12 953.3
21 10.09 ЮВ 6 20 км н/о +13.7 +13.7 100 +11 +11 953.6
22 10.09 ЮВ 5 20 км н/о +13.3 +13.3 100 +11 +11 953.9
23 10.09 ЮВ 5 20 км н/о +13.6 +13.4 99 +12 +12 954.1
00 11.09 ЮВ 5 20 км н/о +13.2 +13.2 100 +11 +11 954.0
01 11.09 ЮВ 5 20 км н/о +12.8 +12.8 100 +10 +10 953.8
02 11.09 ЮВ 5 20 км н/о +12.6 +12.6 100 +10 +10 953.9
03 11.09 В 5 20 км н/о +11.9 +11.9 100 +9 +9 953.8
04 11.09 В 4 20 км н/о +11.9 +11.9 100 +10 +10 954.2
05 11.09 В 4 20 км н/о +11.6 +11.6 100 +9 +9 954.6
06 11.09 В 5 20 км н/о +12.8 +12.8 100 +10 +10 955.0 +11.6
07 11.09 В 3 20 км н/о +14.3 +14.3 100 +13 +13 955.5
08 11.09 В 5 20 км н/о +15.1 +14.9 99 +14 +14 956.0
09 11.09 В 5 20 км н/о +16.6 +13.7 83 +16 +16 956.3
10 11.09 ЮВ 4 20 км н/о +17.8 +14.9 83 +18 +18 956.2
11 11.09 ЮВ 4 20 км н/о +19.0 +14.2 74 +20 +20 956.2
12 11.09 В 6 20 км н/о +19.4 +12.4 64 +20 +20 956.0
13 11.09 ЮВ 3 20 км н/о +20.5 +11.3 56 +23 +23 комфорт 955.9
14 11.09 ЮВ 3 20 км н/о +19.5 +10.0 54 +21 +21 комфорт 955.8
15 11.09 ЮВ 3 20 км н/о +18.8 +11.2 61 +20 +20 955.7
16 11.09 В 3 20 км н/о +18.1 +11.2 64 +18 +18 955.9
17 11.09 В 3 20 км н/о +17.2 +11.1 67 +17 +17 956.2
18 11.09 ЮВ 2 20 км н/о +17.0 +10.8 67 +17 +17 956.6 +20.8
19 11.09 В 2 20 км н/о +16.9 +10.4 66 +17 +17 957.0
20 11.09 ЮВ 1 20 км н/о +16.7 +10.5 67 +18 +18 957.4
21 11.09 З 2 20 км н/о +15.8 +11.1 74 +16 +16 957.7
22 11.09 З 4 20 км н/о +15.9 +10.8 72 +15 +15 957.9
23 11.09 З 5 20 км н/о +16.3 +11.2 72 +15 +15 958.1
00 12.09 З 7 20 км н/о +15.1 +10.8 75 +13 +13 958.1
01 12.09 СЗ 6 20 км н/о +14.7 +14.7 100 +13 +13 958.2
02 12.09 СЗ 7 20 км н/о +13.9 +13.9 100 +11 +11 958.5
03 12.09 СЗ 7 15 км н/о +13.2 +13.2 100 +10 +10 958.6
04 12.09 СЗ 8 9000 м н/о +12.9 +12.9 100 +10 +10 958.8
05 12.09 СЗ 8 13 км н/о +12.6 +12.6 100 +9 +9 959.4
06 12.09 СЗ 8 20 км н/о +13.7 +13.7 100 +11 +11 959.8 +12.5
07 12.09 СЗ 9 20 км н/о +14.4 +14.4 100 +12 +12 960.6
08 12.09 СЗ 8 20 км н/о +15.6 +15.6 100 +14 +14 961.5
09 12.09 СЗ 7 20 км н/о +17.1 +13.1 77 +16 +16 961.8
10 12.09 СЗ 7 20 км н/о +18.5 +12.3 67 +18 +18 962.0
11 12.09 З 8 20 км н/о +18.9 +11.2 61 +19 +19 961.9
12 12.09 З 5 20 км н/о +19.8 +10.7 56 +21 +21 комфорт 961.8
13 12.09 СЗ 5 20 км н/о +18.7 +12.8 69 +19 +19 961.7
14 12.09 СЗ 6 20 км н/о +18.0 +13.9 77 +17 +17 961.6
15 12.09 З 6 20 км н/о +19.0 +12.6 66 +20 +20 961.3
16 12.09 СЗ 5 20 км н/о +18.3 +13.3 73 +18 +18 961.1
17 12.09 З 5 20 км н/о +17.2 +14.3 83 +17 +17 961.4
18 12.09 СЗ 8 20 км н/о +16.4 +15.3 93 +15 +15 961.6 +21.0
19 12.09 СЗ 7 20 км н/о +15.7 +15.7 100 +14 +14 961.9
20 12.09 СЗ 7 20 км н/о +15.4 +14.7 96 +14 +14 962.1
21 12.09 СЗ 6 20 км н/о +15.1 +15.1 100 +13 +13 962.3
22 12.09 СЗ 5 20 км н/о +15.2 +15.2 100 +14 +14 962.4
23 12.09 СЗ 7 20 км н/о +15.4 +15.1 98 +14 +14 962.3
00 13.09 СЗ 7 20 км н/о +15.2 +14.9 98 +13 +13 962.2
01 13.09 СЗ 6 20 км н/о +15.0 +15.0 100 +13 +13 962.1
02 13.09 СЗ 6 20 км н/о +15.2 +15.2 100 +13 +13 962.0
03 13.09 С 6 20 км н/о +15.4 +15.4 100 +14 +14 961.9
04 13.09 СЗ 5 20 км н/о +14.8 +14.8 100 +13 +13 962.0
05 13.09 СЗ 5 20 км н/о +15.3 +15.3 100 +14 +14 962.2
06 13.09 СЗ 6 20 км н/о +15.0 +15.0 100 +13 +13 962.1 +14.7
07 13.09 СЗ 5 20 км н/о +16.8 +15.8 94 +16 +16 962.1
08 13.09 СЗ 4 20 км н/о +17.9 +16.3 90 +18 +18 962.5
09 13.09 СЗ 5 20 км н/о +18.0 +16.6 92 +18 +18 962.4
10 13.09 СЗ 4 20 км н/о +19.9 +16.8 82 +23 +23 комфорт 961.9
11 13.09 СЗ 5 20 км н/о +20.1 +16.5 80 +23 +23 комфорт 961.8
12 13.09 СЗ 6 20 км н/о +19.6 +17.0 85 +22 +22 комфорт 961.6
13 13.09 СЗ 6 20 км н/о +20.3 +15.6 74 +23 +23 комфорт 961.4
14 13.09 СЗ 8 20 км н/о +21.2 +12.9 59 +23 +23 комфорт 961.1
15 13.09 СЗ 6 20 км н/о +20.2 +14.7 71 +22 +22 комфорт 961.0
16 13.09 СЗ 5 20 км н/о +19.4 +14.6 74 +21 +21 комфорт 961.0
17 13.09 СЗ 6 20 км н/о +19.4 +14.9 75 +21 +21 комфорт 961.0
18 13.09 С 6 20 км н/о +18.8 +15.6 82 +19 +19 961.2 +21.6
19 13.09 С 6 20 км н/о +18.2 +16.6 90 +18 +18 961.4
20 13.09 С 7 20 км н/о +17.1 +17.1 100 +16 +16 961.6
21 13.09 С 7 20 км н/о +16.7 +16.7 100 +15 +15 961.9
22 13.09 С 8 20 км н/о +16.3 +16.3 100 +15 +15 961.9
23 13.09 С 7 20 км н/о +15.8 +15.8 100 +14 +14 961.9
00 14.09 С 8 20 км н/о +15.6 +15.6 100 +14 +14 961.9
01 14.09 С 6 20 км н/о +15.4 +15.4 100 +14 +14 961.8
02 14.09 С 5 20 км н/о +14.7 +14.7 100 +13 +13 961.7
03 14.09 СВ 5 20 км н/о +14.6 +14.6 100 +13 +13 961.6
04 14.09 СВ 5 20 км н/о +14.6 +14.6 100 +13 +13 962.0
05 14.09 СВ 4 20 км н/о +14.4 +14.4 100 +13 +13 962.3
06 14.09 С 3 20 км н/о +15.3 +14.5 95 +15 +15 962.9 +14.2
07 14.09 С 3 20 км н/о +16.2 +15.3 94 +16 +16 963.2
08 14.09 С 5 20 км н/о +15.5 +15.4 99 +14 +14 963.5
09 14.09 С 4 20 км н/о +16.4 +13.7 84 +16 +16 963.4
10 14.09 СЗ 5 20 км н/о +16.8 +13.3 80 +16 +16 963.4
11 14.09 СЗ 6 20 км н/о +16.5 +13.3 81 +15 +15 962.8
12 14.09 СЗ 5 20 км н/о +16.9 +12.5 75 +16 +16 962.6
13 14.09 С 9 20 км н/о +16.9 +10.4 66 +15 +15 962.2
14 14.09 СЗ 8 20 км н/о +16.4 +10.8 69 +15 +15 961.9
15 14.09 СЗ 6 20 км н/о +16.0 +9.6 66 +15 +15 961.4
16 14.09 СЗ 10 20 км н/о +15.4 +8.8 65 +13 +13 960.6
17 14.09 С 4 20 км н/о +14.3 +7.9 65 +13 +13 961.0
18 14.09 С 3 20 км н/о +13.3 +8.6 73 +12 +12 961.2 +17.2
19 14.09 С 4 20 км н/о +12.7 +7.9 73 +11 +11 961.4
20 14.09 С 6 20 км н/о +12.9 +5.7 62 +11 +11 961.6
21 14.09 СВ 4 20 км н/о +12.9 +3.3 52 +11 +11 961.6
22 14.09 СВ 5 20 км н/о +12.9 +4.0 55 +11 +11 961.7
23 14.09 СВ 4 20 км н/о +12.1 +4.6 60 +10 +10 960.9
00 15.09 СВ 4 20 км н/о +12.3 +3.6 55 +11 +11 960.8
01 15.09 СВ 4 20 км н/о +12.3 +4.2 58 +11 +11 960.2
02 15.09 СВ 3 20 км н/о +12.3 +4.3 58 +11 +11 959.9
03 15.09 В 5 20 км н/о +11.0 +5.8 70 +8 +8 959.5
04 15.09 СВ 3 20 км н/о +10.9 +6.3 73 +9 +9 959.4
05 15.09 СВ 1 20 км н/о +11.5 +6.2 70 +11 +11 959.2
06 15.09 В 2 20 км н/о +14.7 +4.7 51 +15 +15 959.2 +10.6
07 15.09 ЮВ 2 20 км н/о +15.9 +5.9 51 +16 +16 959.3
08 15.09 ЮВ 3 20 км н/о +15.5 +9.1 66 +15 +15 958.8
09 15.09 ЮВ 2 20 км н/о +16.3 +7.2 55 +16 +16 958.7
10 15.09 ЮВ 2 20 км н/о +17.2 +7.3 52 +18 +18 958.4
11 15.09 Ю 5 20 км н/о +18.5 +8.8 53 +19 +19 957.5
12 15.09 Ю 3 20 км н/о +19.5 +9.6 53 +21 +21 комфорт 957.2
13 15.09 ЮВ 3 20 км н/о +20.0 +10.6 55 +22 +22 комфорт 956.5
14 15.09 Ю 3 20 км н/о +19.4 +12.0 62 +21 +21 комфорт 955.8
15 15.09 Ю 4 20 км н/о +19.3 +12.4 64 +20 +20 955.1
16 15.09 Ю 4 20 км н/о +18.9 +13.4 70 +20 +20 954.5
17 15.09 ЮВ 4 20 км н/о +17.8 +14.5 81 +18 +18 954.1
18 15.09 Ю 4 20 км н/о +17.2 +15.1 87 +17 +17 954.1 +20.2
19 15.09 ЮВ 4 20 км н/о +17.2 +15.0 87 +17 +17 954.0
20 15.09 ЮВ 4 20 км н/о +17.4 +15.2 87 +17 +17 953.7
21 15.09 Ю 3 20 км н/о +17.4 +16.2 93 +17 +17 953.4
22 15.09 З 5 19 км н/о +17.3 +17.3 100 +17 +17 953.3
23 15.09 СЗ 6 19 км н/о +17.0 +17.0 100 +16 +16 953.2
00 16.09 СЗ 6 19 км н/о +16.5 +16.5 100 +15 +15 952.5
01 16.09 СЗ 6 19 км н/о +16.0 +16.0 100 +15 +15 952.3
02 16.09 СЗ 7 20 км н/о +15.8 +15.8 100 +14 +14 952.1
03 16.09 СЗ 6 20 км н/о +16.0 +16.0 100 +15 +15 951.9
04 16.09 СЗ 4 19 км н/о +15.9 +15.9 100 +15 +15 951.8
05 16.09 СЗ 5 19 км н/о +16.0 +16.0 100 +15 +15 951.7
06 16.09 З 4 19 км н/о +17.1 +17.1 100 +17 +17 951.9 +15.5
07 16.09 СЗ 4 20 км н/о +17.9 +17.9 100 +18 +18 952.0
08 16.09 СЗ 5 20 км н/о +18.3 +18.0 98 +18 +18 951.9
09 16.09 СЗ 7 20 км н/о +19.4 +16.3 82 +21 +21 комфорт 951.7
10 16.09 СЗ 6 20 км н/о +20.3 +12.4 60 +22 +22 комфорт 951.4
11 16.09 СЗ 6 20 км н/о +20.3 +12.4 60 +22 +22 комфорт 951.2
12 16.09 СЗ 7 20 км н/о +20.0 +11.6 58 +21 +21 комфорт 950.6
13 16.09 СЗ 5 20 км н/о +21.6 +10.4 49 +23 +23 комфорт 950.2
14 16.09 СЗ 7 20 км н/о +21.4 +8.7 44 +23 +23 комфорт 949.7
15 16.09 СЗ 4 20 км н/о +21.8 +10.0 47 +23 +23 комфорт 949.4
16 16.09 СЗ 4 20 км н/о +20.5 +9.8 50 +22 +22 комфорт 949.1
17 16.09 СЗ 4 20 км н/о +20.4 +9.7 50 +22 +22 комфорт 948.9
18 16.09 СЗ 2 20 км н/о +20.3 +8.8 48 +22 +22 комфорт 948.8 +21.8
19 16.09 Ю 1 20 км н/о +19.8 +9.7 52 +22 +22 комфорт 948.8
20 16.09 З 3 20 км н/о +19.5 +9.5 52 +21 +21 комфорт 949.0
21 16.09 С 4 20 км н/о +18.6 +8.9 53 +19 +19 949.0
22 16.09 СЗ 4 20 км н/о +18.8 +7.9 49 +19 +19 948.6
23 16.09 З 3 20 км н/о +18.5 +9.3 55 +19 +19 948.1
00 17.09 З 5 20 км н/о +16.9 +12.0 73 +16 +16 948.1
01 17.09 СЗ 4 20 км н/о +16.0 +14.1 88 +15 +15 947.8
02 17.09 СЗ 5 20 км н/о +15.7 +13.9 89 +14 +14 947.4
03 17.09 СЗ 6 20 км н/о +15.1 +13.8 92 +13 +13 947.2
04 17.09 СЗ 6 20 км н/о +15.0 +14.4 96 +13 +13 947.2
05 17.09 СЗ 7 20 км н/о +14.0 +14.0 100 +12 +12 947.3
06 17.09 СЗ 6 20 км н/о +13.6 +13.6 100 +11 +11 947.4 +13.6
07 17.09 С 5 20 км н/о +14.2 +14.2 100 +12 +12 948.0
08 17.09 СЗ 7 11 км н/о +13.6 +13.6 100 +11 +11 948.3
09 17.09 С 7 20 км н/о +12.6 +12.6 100 +10 +10 948.6
10 17.09 СЗ 3 11 км н/о +12.3 +12.3 100 +11 +11 948.4
11 17.09 СЗ 4 20 км н/о +12.9 +12.9 100 +11 +11 948.2
12 17.09 СЗ 8 20 км н/о +13.7 +13.7 100 +11 +11 947.5
13 17.09 СЗ 8 20 км н/о +14.1 +14.1 100 +11 +11 947.1

 

Местоположение метеостанции Малый Яровник (Словакия): широта 48.25 долгота 17.15 высота над уровнем моря 585 м.

В архиве по умолчанию представлена погода в Малом Яровнику за последнюю неделю. Архивные данные за месяц целиком и за предыдущие месяцы, начиная с января 2011 года, Вы можете получить, выбрав интересующий диапазон дат из раскрывающегося списка и нажав кнопку "Ввод!".


*Определитесь, кто Вы:
робот инопланетянин человек

Внимание! Время в таблицах - всемирное. Для получения местного времени необходимо прибавить поправку, которая равна 1 ч.

Смотрите также архив погоды в соседних городах и на ближайших метеорологических станциях:

Погода в Братиславе (Словакия) (7 км)
Погода в Братислава-Колибе (Словакия) (9 км)
Погода в Малацки (Словакия) (17 км)
Погода в Зверндорф-Маршег (Австрия) (25 км)
Погода в Нойзидль-ам-Зе (Австрия) (40 км)
Погода в Нойзидль-ам-Зе (Австрия) (41 км)
Погода в Мошонмадьяроваре (Венгрия) (42 км)
Погода в Грос-Энцерсдорфе (Австрия) (43 км)
Погода в Вене аэропорт (Австрия) (45 км)
Погода в Ясловске Богунице (Словакия) (46 км)

Пояснения к столбцам:

Ветер - указаны скорость ветра в м/с - средняя за 10 мин, порывы в срок и между сроками (в фигурных скобках) и направление, откуда дует ветер: С - северный, СВ - северо-восточный, В - восточный, ЮВ - юго-восточный, Ю - южный, ЮЗ - юго-западный, З - западный, СЗ - северо-западный.
Видимость - горизонтальная дальность видимости в метрах или километрах. При видимости от 1 до 10 км при отсутствии осадков обычно наблюдается дымка, при ухудшении видимости до 1 км и менее - туман. В сухую погоду видимость может ухудшаться дымом, пылью или мглою.
Явления - указаны атмосферные явления, наблюдавшиеся в срок или в последний час перед сроком; фигурными скобками обозначены явления, наблюдавшиеся между сроками (за 1-3 часа до срока); квадратными скобками обозначены град или гололедные отложения с указанием их диаметра в мм.
Облачность - указаны через наклонную черту общая и нижняя облачность в баллах и высота нижней границы облаков в метрах; квадратными скобками обозначены формы облаков: Ci - перистые, Cs - перисто-слоистые, Cc - перисто-кучевые, Ac - высококучевые, As - высокослоистые, Sc - слоисто-кучевые, Ns - слоисто-дождевые, Cu - кучевые, Cb - кучево-дождевые. Подробнее классификацию облаков см. в Атласе облаков (PDF).
T - Температура воздуха - температура, измеренная на высоте 2 м над землей.
Td - Температура точки росы - температура, при понижении до которой содержащийся в воздухе водяной пар достигнет насыщения.
f - Относительная влажность воздуха - влажноcть воздуха, измеренная на высоте 2 м над землей.
Te - Эффективная температура - температура, которую ощущает одетый по сезону человек в тени. Характеристика душности погоды. При расчете учитывается влияние влажности воздуха и скорости ветра на теплоощущения человека.
Tes - Эффективная температура на солнце - температура, которую ощущает человек, с поправкой на солнечный нагрев. Характеристика знойности погоды. Зависит от высоты солнца над горизонтом, облачности и скорости ветра. Ночью, в пасмурную погоду, а также при ветре 12 м/с и более поправка равна нулю.
P - Атмосферное давление - приведенное к уровню моря атмосферное давление.
Po - Атмосферное давление - измеренное на уровне метеостанции атмосферное давление.
Tmin - Минимальная температура - минимум температуры воздуха на высоте 2 м над землей.
Tmax - Максимальная температура - максимум температуры воздуха на высоте 2 м над землей.
R - Количество осадков - Количество выпавших осадков за период времени, мм. При наведении курсора мыши на число - период времени, за который выпало указанное количество осадков.
R24 - Количество осадков - Количество выпавших осадков за 24 часа, мм.
S - Снежный покров - Высота снежного покрова, см. При наведении курсора мыши на число - состояние снежного покрова и степень покрытия местности в баллах.